Content
SEND FEEDBACK

Daily
Averages
Monthly
Summary
United States of America

PICABO, IDAHO


Home > North America > United States > Idaho
Elevation: 1478 meters     Latitude: 43 18N     Longitude: 114 04W

WEATHER
 
SELECT A DAY
Number of Records: 193,691;   Date Range: 1/1/95 - 9/18/14
 
SHARE

PRINT THIS DATA

[ ← Previous Day ]
WEATHER ALMANAC - 31 JANUARY, 2013
[ Next Day → ]
[ °F ]   °C
Weather ElementAverageHighLow
Temperature-1.7 °C3 °C (2:47 pm)-5 °C (4:55 am)
Dewpoint-5.2 °C-1 °C (4:47 pm)-8 °C (4:55 am)
Humidity77.1 %86 % (5:35 am)56 % (11:47 am)
Barometer1022.7 hPa1024.7 hPa (10:47 am)1021 hPa (12:35 am)
Wind Speed7.7 km/h20.4 km/h (12:47 pm)
Weather ElementAverage
Visibility16.1 km
Wind DirectionSSW (197.7 °)

Weather ElementTotal
Precipitation---
Heating Degree Days19.3 (Base 18.3)
Averaged from 39 records on 31 January, 2013
WEATHER CONDITIONS BREAKOUT
WIND DIRECTION BREAKOUT
WEATHER BY HOUR - 31 JANUARY, 2013
[ °F ]   °C
Local TimeTemperatureDewpointHumidityBarometerVisibilityWind DirectionWind SpeedGust SpeedPrecipitationEventsConditions
12:35 AM-1 °C-6 °C69 %1021 hPa16.1 kmEast (80°)7.4 km/hClear
12:55 AM-2 °C-6 °C74 %1021 hPa16.1 kmSouth (190°)5.6 km/hClear
1:15 AM-2 °C-6 °C74 %1021.3 hPa16.1 kmCalmClear
1:35 AM-2 °C-6 °C74 %1021.3 hPa16.1 kmCalmClear
1:55 AM-3 °C-6 °C80 %1021.7 hPa16.1 kmCalmClear
2:15 AM-4 °C-7 °C80 %1022 hPa16.1 kmWNW (290°)5.6 km/hClear
2:35 AM-3 °C-7 °C74 %1022 hPa16.1 kmNE (40°)5.6 km/hClear
2:55 AM-3 °C-7 °C74 %1022.4 hPa16.1 kmCalmClear
3:15 AM-3 °C-7 °C74 %1022.7 hPa16.1 kmCalmClear
3:35 AM-3 °C-7 °C74 %1022.7 hPa16.1 kmNW (320°)5.6 km/hClear
4:15 AM-3 °C-7 °C74 %1022.4 hPa16.1 kmNNW (330°)16.7 km/hClear
4:35 AM-4 °C-7 °C80 %1022.4 hPa16.1 kmNorth (350°)13 km/hClear
4:55 AM-5 °C-8 °C80 %1022.7 hPa16.1 kmNNW (340°)16.7 km/hClear
5:15 AM-3 °C-7 °C74 %1022.7 hPa16.1 kmNNW (340°)11.1 km/hClear
5:35 AM-5 °C-7 °C86 %1023 hPa16.1 kmNNW (330°)16.7 km/hClear
5:55 AM-5 °C-7 °C86 %1023 hPa16.1 kmNNW (340°)14.8 km/hClear
6:47 AM-3 °C-8 °C69 %1023.4 hPa16.1 kmNW (310°)14.8 km/hScattered Clouds
7:47 AM-4 °C-8 °C74 %1023.7 hPa16.1 kmWNW (290°)14.8 km/hMostly Cloudy
8:47 AM-4 °C-8 °C74 %1024 hPa16.1 kmNW (310°)13 km/hMostly Cloudy
9:47 AM-3 °C-7 °C74 %1024.4 hPa16.1 kmCalmMostly Cloudy
10:47 AM-2 °C-7 °C69 %1024.7 hPa16.1 kmCalmScattered Clouds
11:47 AM1 °C-7 °C56 %1024.7 hPa16.1 kmCalmScattered Clouds
12:47 PM1 °C-4 °C70 %1024 hPa16.1 kmSE (130°)20.4 km/hScattered Clouds
1:47 PM2 °C-3 °C70 %1023.7 hPa16.1 kmESE (120°)9.3 km/hMostly Cloudy
2:47 PM3 °C-2 °C70 %1023 hPa16.1 kmSE (130°)13 km/hMostly Cloudy
3:47 PM3 °C-2 °C70 %1023 hPa16.1 kmESE (120°)9.3 km/hMostly Cloudy
4:47 PM2 °C-1 °C81 %1023 hPa16.1 kmESE (120°)9.3 km/hMostly Cloudy
5:47 PM2 °C-1 °C81 %1022.7 hPa16.1 kmCalmMostly Cloudy
6:47 PM1 °C-2 °C81 %1023 hPa16.1 kmNW (310°)5.6 km/hScattered Clouds
7:47 PM-1 °C-3 °C86 %1023.4 hPa16.1 kmNW (310°)7.4 km/hPartly Cloudy
8:47 PM0 °C-3 °C80 %1023 hPa16.1 kmNW (310°)11.1 km/hPartly Cloudy
9:47 PM-1 °C-3 °C86 %1023 hPa16.1 kmWNW (300°)7.4 km/hScattered Clouds
10:15 PM-1 °C-3 °C86 %1023 hPa16.1 kmNorth (360°)5.6 km/hScattered Clouds
10:35 PM-1 °C-3 °C86 %1022.7 hPa16.1 kmCalmClear
10:47 PM-2 °C-4 °C86 %1022.7 hPa16.1 kmNW (320°)7.4 km/hScattered Clouds
10:55 PM-1 °C-3 °C86 %1022.7 hPa16.1 kmNNW (340°)5.6 km/hScattered Clouds
11:15 PM-2 °C-4 °C86 %1022.7 hPa16.1 kmNNW (330°)9.3 km/hScattered Clouds
11:35 PM-1 °C-4 °C80 %1022.4 hPa16.1 kmNorth (350°)9.3 km/hClear
11:55 PM-2 °C-5 °C80 %1022.7 hPa16.1 kmWNW (300°)9.3 km/hClear
Hourly data recorded from KSUN, located 0 kilometers away from Picabo, Idaho







STORIES FROM OUR PARTNERS